Regional Weather Roundup
Issued by NWS Midland/Odessa, TX

Home | Current Version | Previous Version | Text Only | Print | Product List | Glossary On
Versions: 1 2 3 4 5 6 7 8 9 10 11 12 13 14 15 16 17 18 19 20 21 22 23 24 25 26 27 28 29 30 31 32 33 34 35 36 37 38 39 40 41 42 43 44 45 46 47 48 49 50
000
ASUS44 KMAF 301601
RWRMAF
MIDLAND AREA WEATHER ROUNDUP
NATIONAL WEATHER SERVICE MIDLAND TX
1000 AM CST FRI JAN 30 2015

...IN SOUTHWEST TEXAS AND SOUTHEAST NEW MEXICO...

CITY           SKY/WX    TMP DP  RH WIND       PRES   REMARKS
ALPINE         CLOUDY    40  30  68 E8        30.39S WCI  35
ANDREWS        CLOUDY    39  29  66 E10       30.42S WCI  32
ARTESIA        DRIZZLE   39  36  87 SE5       30.40S WCI  36
BIG SPRING     CLOUDY    43  29  57 NE13      30.45S WCI  37
CARLSBAD       LGT RAIN  41  35  79 E7        30.39S WCI  36
DRYDEN           N/A     50  32  50 NE12      30.37S
FORT STOCKTON  CLOUDY    44  32  62 E10       30.37F WCI  39
GUAD PASS      CLOUDY    31  29  92 NE45      30.22F FOG     WCI  14
HOBBS          CLOUDY    37  27  65 E15       30.40S WCI  28
MARFA          CLOUDY    41  30  65 NE7       30.33R WCI  36
MIDLAND AIRPK  CLOUDY    43  30  59 E9        30.43S WCI  37
MIDLAND INTL   CLOUDY    42  29  59 E9        30.42R WCI  37
ODESSA         CLOUDY    42  28  57 E10       30.41F WCI  36
PECOS          CLOUDY    42  36  78 NE9       30.39F WCI  36
PRESIDIO       CLOUDY    52  34  50 NE15G23   30.26F
SEMINOLE       PTSUNNY   39  27  62 E10       30.43F WCI  32
SNYDER         CLOUDY   N/A N/A N/A E10       30.45S
WINK           CLOUDY    44  28  53 E10       30.38S WCI  39
$$
...OTHER STATIONS IN TEXAS...

CITY           SKY/WX    TMP DP  RH WIND       PRES   REMARKS
ABILENE        CLOUDY    43  29  57 E15       30.46F WCI  36
AMARILLO       CLOUDY    37  27  67 S13       30.43S WCI  29
AUSTIN         CLOUDY    49  35  58 NE17      30.45S
BROWNSVILLE    MOSUNNY   70  65  84 NE8       30.32R
CORPUS CHRISTI PTSUNNY   59  42  53 NE17      30.38R
DALLAS FTW     PTSUNNY   46  31  55 NE6       30.50S
DEL RIO        CLOUDY    55  35  47 CALM      30.40R
EL PASO        CLOUDY    42  36  79 NE8       30.24S WCI  37
HOUSTON INT    CLOUDY    52  38  58 NE13      30.44R
LUBBOCK        CLOUDY    39  27  62 E14       30.42S WCI  31
SAN ANGELO     CLOUDY    46  32  58 NE15      30.44R WCI  40
SAN ANTONIO    CLOUDY    53  35  50 NE13      30.42R
WACO           CLOUDY    46  33  60 NE9       30.49S
WICHITA FALLS  NOT AVBL
$$
...OTHER LOCATIONS IN NEW MEXICO...

CITY           SKY/WX    TMP DP  RH WIND       PRES   REMARKS
ALAMAGORDO     CLOUDY    39  39 100 NW3       30.25F
ALBUQUERQUE    LGT SNOW  34  30  85 E20       30.27S FOG     WCI  23
CANNON AFB     CLOUDY    38  27  66 SE10      30.39R WCI  30
CLOVIS         CLOUDY    37  27  65 SE12      30.40R WCI  30
HOLLOMAN AFB   CLOUDY    40  40 100 SW6       30.24S WCI  36
ROSWELL        CLOUDY    40  35  83 SW3       30.39S
RUIDOSO        LGT RAIN  28  27  93 SE13      30.32F WCI  18
SANTA FE       LGT SNOW  29  27  92 S5        30.29S VSB 3/4 WCI  24
TRUTH OR CONSE LGT RAIN  37  36  96 N12       30.23S WCI  29
TUCUMCARI      CLOUDY    39  29  67 SW7       30.37S WCI  34
$$


USA.gov is the U.S. government's official web portal to all federal, state and local government web resources and services.